EXS489A LGRP-EGSS

Flight info

Callsign EXS489A
Flight time 3h 49m
Altitude 24000
Route VANES M601 GILOS/N0454F340 UM601 ADESO UN133 RIGRO DCT ESOPO DCT FSK/N0456F360 UL608 DISOR DCT LONTA UL608 DOLEV DCT PETOV DCT VAMET DCT SIMBA DCT MAMOR DCT PETIX DCT BOMBI DCT ADKUV DCT SOGRI DCT HELEN DCT KOZUF DCT IMPOH DCT SASKI L608 SUMUM Y6 TOSVA
Aircraft B738/M-SDE2E3FGHIRWXY/LB1

Departure

Time 2026-05-05 09:07
Airport Rhodes International Airport "Diagoras" (LGRP)

Arrival

Time 2026-05-05 12:56
Airport London Stansted Airport (EGSS)
Time Latitude Longitude Altitude Speed Heading
2026-05-05 08:45 36.40366 28.09137 27 ft 0 kts 160°
2026-05-05 08:46 36.40369 28.09136 27 ft 0 kts 160°
2026-05-05 08:57 36.40384 28.09129 27 ft 4 kts 159°
2026-05-05 08:57 36.40405 28.09120 27 ft 4 kts 155°
2026-05-05 08:57 36.40422 28.09101 27 ft 4 kts 95°
2026-05-05 08:58 36.40419 28.09070 27 ft 3 kts 71°
2026-05-05 08:58 36.40425 28.09090 27 ft 3 kts 69°
2026-05-05 08:58 36.40426 28.09095 27 ft 1 kts 70°
2026-05-05 09:00 36.40427 28.09096 27 ft 1 kts 70°
2026-05-05 09:00 36.40438 28.09134 27 ft 8 kts 71°
2026-05-05 09:00 36.40459 28.09208 27 ft 9 kts 70°
2026-05-05 09:01 36.40472 28.09251 27 ft 9 kts 70°
2026-05-05 09:01 36.40492 28.09316 27 ft 9 kts 64°
2026-05-05 09:02 36.40533 28.09370 27 ft 8 kts 31°
2026-05-05 09:02 36.40579 28.09414 27 ft 8 kts 50°
2026-05-05 09:02 36.40619 28.09521 27 ft 17 kts 70°
2026-05-05 09:02 36.40660 28.09659 27 ft 17 kts 70°
2026-05-05 09:03 36.40698 28.09791 27 ft 16 kts 70°
2026-05-05 09:03 36.40735 28.09919 27 ft 15 kts 70°
2026-05-05 09:03 36.40772 28.10041 27 ft 15 kts 69°
2026-05-05 09:03 36.40807 28.10159 27 ft 14 kts 69°
2026-05-05 09:04 36.40839 28.10271 27 ft 14 kts 70°
2026-05-05 09:04 36.40871 28.10378 27 ft 13 kts 70°
2026-05-05 09:04 36.40883 28.10414 27 ft 13 kts 54°
2026-05-05 09:05 36.40918 28.10436 27 ft 13 kts
2026-05-05 09:05 36.40989 28.10384 29 ft 12 kts 301°
2026-05-05 09:05 36.41016 28.10283 31 ft 12 kts 276°
2026-05-05 09:05 36.40988 28.10152 26 ft 35 kts 250°
2026-05-05 09:06 36.40823 28.09587 27 ft 102 kts 250°
2026-05-05 09:06 36.40516 28.08540 33 ft 156 kts 251°
2026-05-05 09:06 36.40468 28.08382 47 ft 161 kts 253°
2026-05-05 09:07 36.40141 28.07324 444 ft 169 kts 256°
2026-05-05 09:07 36.39834 28.05934 1223 ft 168 kts 268°
2026-05-05 09:07 36.39723 28.04510 2086 ft 164 kts 272°
2026-05-05 09:07 36.39631 28.03007 2480 ft 191 kts 271°
2026-05-05 09:08 36.39522 28.01245 2686 ft 217 kts 270°
2026-05-05 09:08 36.39390 27.99321 3104 ft 229 kts 269°
2026-05-05 09:08 36.39242 27.97246 3438 ft 250 kts 269°
2026-05-05 09:08 36.39077 27.95060 4100 ft 259 kts 268°
2026-05-05 09:09 36.38904 27.92815 4878 ft 265 kts 269°
2026-05-05 09:09 36.38723 27.90512 5676 ft 269 kts 268°
2026-05-05 09:09 36.38541 27.88191 6447 ft 275 kts 269°
2026-05-05 09:09 36.38358 27.85810 6858 ft 274 kts 270°
2026-05-05 09:10 36.38331 27.83451 7015 ft 272 kts 276°
2026-05-05 09:10 36.38381 27.81097 7166 ft 276 kts 276°
2026-05-05 09:10 36.38427 27.78702 7908 ft 278 kts 276°
2026-05-05 09:10 36.38462 27.76298 8772 ft 279 kts 276°
2026-05-05 09:11 36.38491 27.73898 9523 ft 283 kts 275°
2026-05-05 09:11 36.38619 27.71446 10238 ft 284 kts 282°
2026-05-05 09:11 36.38919 27.68960 10522 ft 305 kts 284°
2026-05-05 09:11 36.39293 27.66250 10706 ft 327 kts 284°
2026-05-05 09:12 36.39688 27.63400 10910 ft 347 kts 283°
2026-05-05 09:12 36.40089 27.60407 11409 ft 356 kts 283°
2026-05-05 09:12 36.40482 27.57376 12103 ft 358 kts 282°
2026-05-05 09:12 36.40870 27.54324 12822 ft 361 kts 282°
2026-05-05 09:13 36.41262 27.51205 13531 ft 363 kts 282°
2026-05-05 09:13 36.41648 27.48109 14154 ft 367 kts 282°
2026-05-05 09:13 36.42037 27.44974 14753 ft 370 kts 282°
2026-05-05 09:13 36.42432 27.41788 15368 ft 373 kts 282°
2026-05-05 09:14 36.43037 27.38686 15931 ft 372 kts 294°
2026-05-05 09:14 36.44275 27.35893 16510 ft 372 kts 308°
2026-05-05 09:14 36.45971 27.33466 17115 ft 374 kts 315°
2026-05-05 09:14 36.47816 27.31157 17656 ft 378 kts 315°
2026-05-05 09:15 36.49682 27.28837 18187 ft 382 kts 315°
2026-05-05 09:15 36.51578 27.26474 18691 ft 385 kts 315°
2026-05-05 09:15 36.53466 27.24109 19178 ft 388 kts 315°
2026-05-05 09:15 36.55368 27.21715 19785 ft 387 kts 315°
2026-05-05 09:16 36.57242 27.19346 20308 ft 389 kts 314°
2026-05-05 09:16 36.59135 27.16946 20723 ft 392 kts 314°
2026-05-05 09:16 36.61076 27.14481 21086 ft 399 kts 314°
2026-05-05 09:16 36.63021 27.12006 21077 ft 406 kts 314°
2026-05-05 09:17 36.65012 27.09470 21555 ft 406 kts 314°
2026-05-05 09:17 36.66968 27.06976 22039 ft 406 kts 314°
2026-05-05 09:17 36.68935 27.04467 22026 ft 406 kts 314°
2026-05-05 09:17 36.70900 27.01957 22100 ft 407 kts 314°
2026-05-05 09:18 36.72913 26.99384 22480 ft 411 kts 314°
2026-05-05 09:18 36.74778 26.96708 23053 ft 409 kts 305°
2026-05-05 09:18 36.76219 26.93676 23577 ft 411 kts 296°
2026-05-05 09:18 36.77311 26.90342 23952 ft 414 kts 292°
2026-05-05 09:19 36.78349 26.87003 24295 ft 416 kts 292°
2026-05-05 09:19 36.79400 26.83649 24619 ft 419 kts 292°
2026-05-05 09:19 36.80476 26.80240 24978 ft 421 kts 292°
2026-05-05 09:19 36.81548 26.76863 25350 ft 422 kts 292°
2026-05-05 09:20 36.82633 26.73461 25713 ft 424 kts 292°
2026-05-05 09:20 36.83730 26.70021 26057 ft 426 kts 292°
2026-05-05 09:20 36.84822 26.66599 26388 ft 428 kts 292°
2026-05-05 09:20 36.85919 26.63155 26712 ft 430 kts 292°
2026-05-05 09:21 36.87035 26.59648 27045 ft 432 kts 292°
2026-05-05 09:21 36.88133 26.56195 27353 ft 433 kts 292°
2026-05-05 09:21 36.89254 26.52663 27664 ft 435 kts 292°
2026-05-05 09:21 36.90369 26.49146 27995 ft 436 kts 292°
2026-05-05 09:22 36.91487 26.45613 28436 ft 434 kts 292°
2026-05-05 09:22 36.92585 26.42140 28944 ft 431 kts 292°
2026-05-05 09:22 36.93689 26.38643 29422 ft 429 kts 292°
2026-05-05 09:22 36.94780 26.35188 29826 ft 429 kts 292°
2026-05-05 09:23 36.95865 26.31743 30215 ft 428 kts 292°
2026-05-05 09:23 36.97092 26.28345 30577 ft 426 kts 302°
2026-05-05 09:23 36.98913 26.25425 30981 ft 423 kts 315°
2026-05-05 09:23 37.01111 26.23049 31575 ft 416 kts 324°
2026-05-05 09:24 37.03589 26.21293 32017 ft 413 kts 333°
2026-05-05 09:24 37.08829 26.18163 32097 ft 419 kts 333°
2026-05-05 09:25 37.14055 26.15050 32099 ft 414 kts 333°
2026-05-05 09:25 37.19228 26.11912 32097 ft 413 kts 333°
2026-05-05 09:26 37.24386 26.08753 32103 ft 412 kts 333°
2026-05-05 09:26 37.28704 26.06101 32103 ft 413 kts 332°
2026-05-05 09:27 37.33838 26.02943 32100 ft 413 kts 332°
2026-05-05 09:27 37.38762 25.99911 32103 ft 413 kts 332°
2026-05-05 09:28 37.43936 25.96720 32103 ft 414 kts 332°
2026-05-05 09:28 37.49105 25.93528 32099 ft 414 kts 333°
2026-05-05 09:29 37.54252 25.90343 32094 ft 414 kts 333°
2026-05-05 09:29 37.59409 25.87119 32096 ft 413 kts 330°
2026-05-05 09:30 37.64356 25.83456 32103 ft 412 kts 328°
2026-05-05 09:30 37.69242 25.79654 32100 ft 412 kts 328°
2026-05-05 09:31 37.74119 25.75872 32103 ft 411 kts 328°
2026-05-05 09:31 37.79002 25.72112 32103 ft 411 kts 328°
2026-05-05 09:32 37.83885 25.68359 32101 ft 411 kts 328°
2026-05-05 09:32 37.88765 25.64607 32100 ft 410 kts 328°
2026-05-05 09:33 37.93605 25.60880 32102 ft 409 kts 328°
2026-05-05 09:33 37.98481 25.57118 32100 ft 408 kts 328°
2026-05-05 09:34 38.03324 25.53377 32115 ft 407 kts 328°
2026-05-05 09:34 38.08143 25.49647 32102 ft 407 kts 328°
2026-05-05 09:35 38.12948 25.45923 32099 ft 406 kts 328°
2026-05-05 09:35 38.20186 25.40303 32100 ft 406 kts 328°
2026-05-05 09:36 38.25016 25.36544 32101 ft 406 kts 328°
2026-05-05 09:36 38.29599 25.32973 32103 ft 406 kts 328°
2026-05-05 09:37 38.34410 25.29218 32098 ft 406 kts 328°
2026-05-05 09:37 38.39214 25.25462 32098 ft 406 kts 328°
2026-05-05 09:38 38.44022 25.21698 32108 ft 406 kts 328°
2026-05-05 09:38 38.48827 25.17930 32099 ft 405 kts 328°
2026-05-05 09:39 38.53634 25.14154 32095 ft 405 kts 328°
2026-05-05 09:39 38.58408 25.10398 32097 ft 406 kts 328°
2026-05-05 09:40 38.63237 25.06594 32098 ft 406 kts 328°
2026-05-05 09:40 38.68029 25.02812 32095 ft 406 kts 328°
2026-05-05 09:41 38.72828 24.99018 32094 ft 405 kts 328°
2026-05-05 09:41 38.77622 24.95223 32098 ft 405 kts 328°
2026-05-05 09:42 38.82395 24.91437 32097 ft 404 kts 328°
2026-05-05 09:42 38.86937 24.87830 32089 ft 404 kts 328°
2026-05-05 09:43 38.91716 24.84029 32092 ft 404 kts 328°
2026-05-05 09:43 38.96486 24.80228 32090 ft 403 kts 328°
2026-05-05 09:44 39.01245 24.76430 32090 ft 403 kts 328°
2026-05-05 09:44 39.05999 24.72630 32101 ft 403 kts 328°
2026-05-05 09:45 39.10761 24.68817 32091 ft 403 kts 328°
2026-05-05 09:45 39.15513 24.65007 32090 ft 404 kts 328°
2026-05-05 09:46 39.20291 24.61169 32088 ft 404 kts 328°
2026-05-05 09:46 39.25052 24.57337 32087 ft 404 kts 328°
2026-05-05 09:47 39.29816 24.53499 32087 ft 404 kts 328°
2026-05-05 09:47 39.34583 24.49648 32088 ft 404 kts 328°
2026-05-05 09:48 39.39313 24.45729 32087 ft 405 kts 327°
2026-05-05 09:48 39.44050 24.41761 32087 ft 405 kts 327°
2026-05-05 09:49 39.48752 24.37821 32069 ft 405 kts 327°
2026-05-05 09:49 39.53499 24.33845 32082 ft 404 kts 327°
2026-05-05 09:50 39.58256 24.29856 32165 ft 413 kts 327°
2026-05-05 09:50 39.63124 24.25767 32276 ft 423 kts 327°
2026-05-05 09:51 39.65615 24.23673 32387 ft 425 kts 327°
2026-05-05 09:51 39.68079 24.21599 32589 ft 425 kts 327°
2026-05-05 09:51 39.70548 24.19519 32850 ft 423 kts 327°
2026-05-05 09:51 39.73038 24.17419 33101 ft 422 kts 327°
2026-05-05 09:52 39.75498 24.15344 33303 ft 423 kts 327°
2026-05-05 09:52 39.77942 24.13280 33502 ft 423 kts 327°
2026-05-05 09:52 39.80423 24.11183 33728 ft 422 kts 327°
2026-05-05 09:52 39.82870 24.09113 33961 ft 421 kts 327°
2026-05-05 09:53 39.87783 24.04950 34075 ft 423 kts 327°
2026-05-05 09:53 39.92725 24.00757 34080 ft 422 kts 327°
2026-05-05 09:54 39.97635 23.96583 34076 ft 421 kts 327°
2026-05-05 09:54 40.02504 23.92436 34078 ft 420 kts 327°
2026-05-05 09:55 40.07422 23.88241 34084 ft 420 kts 327°
2026-05-05 09:55 40.12290 23.84082 34076 ft 421 kts 327°
2026-05-05 09:56 40.16953 23.80090 34071 ft 421 kts 327°
2026-05-05 09:56 40.21846 23.75894 34068 ft 422 kts 327°
2026-05-05 09:57 40.26750 23.71683 34070 ft 421 kts 327°
2026-05-05 09:57 40.31634 23.67479 34078 ft 421 kts 327°
2026-05-05 09:58 40.36542 23.63249 34074 ft 421 kts 327°
2026-05-05 09:58 40.41428 23.59030 34055 ft 421 kts 327°
2026-05-05 09:59 40.46077 23.55008 34063 ft 421 kts 326°
2026-05-05 09:59 40.50981 23.50759 34064 ft 422 kts 327°
2026-05-05 10:00 40.55857 23.46526 34073 ft 422 kts 326°
2026-05-05 10:00 40.60751 23.42271 34037 ft 422 kts 327°
2026-05-05 10:01 40.65639 23.38012 34064 ft 421 kts 327°
2026-05-05 10:01 40.70532 23.33743 34054 ft 421 kts 326°
2026-05-05 10:02 40.75404 23.29483 34067 ft 421 kts 326°
2026-05-05 10:02 40.80277 23.25215 34063 ft 421 kts 326°
2026-05-05 10:03 40.85148 23.20941 34065 ft 421 kts 326°
2026-05-05 10:03 40.90026 23.16653 34066 ft 422 kts 326°
2026-05-05 10:04 40.94921 23.12342 34059 ft 422 kts 326°
2026-05-05 10:04 40.99797 23.08040 34049 ft 422 kts 326°
2026-05-05 10:05 41.04655 23.03747 34061 ft 422 kts 326°
2026-05-05 10:05 41.09485 22.99287 34067 ft 423 kts 320°
2026-05-05 10:06 41.13495 22.93590 34076 ft 424 kts 311°
2026-05-05 10:06 41.17241 22.87591 34066 ft 424 kts 311°
2026-05-05 10:07 41.21032 22.81590 34073 ft 424 kts 311°
2026-05-05 10:07 41.24842 22.75579 34059 ft 424 kts 311°
2026-05-05 10:08 41.28727 22.69771 34081 ft 423 kts 314°
2026-05-05 10:08 41.32714 22.64020 34075 ft 423 kts 314°
2026-05-05 10:09 41.36683 22.58260 34087 ft 424 kts 314°
2026-05-05 10:09 41.40661 22.52437 34087 ft 424 kts 313°
2026-05-05 10:10 41.44616 22.46618 34089 ft 424 kts 313°
2026-05-05 10:10 41.48564 22.40796 34093 ft 424 kts 313°
2026-05-05 10:11 41.52508 22.34968 34090 ft 424 kts 313°
2026-05-05 10:11 41.56446 22.29140 34096 ft 424 kts 313°
2026-05-05 10:12 41.60400 22.23275 34095 ft 424 kts 313°
2026-05-05 10:12 41.64339 22.17421 34097 ft 424 kts 313°
2026-05-05 10:13 41.68282 22.11549 34088 ft 424 kts 313°
2026-05-05 10:13 41.72200 22.05704 34096 ft 423 kts 313°
2026-05-05 10:14 41.76137 21.99817 34089 ft 423 kts 313°
2026-05-05 10:14 41.80062 21.93938 34096 ft 423 kts 313°
2026-05-05 10:15 41.83954 21.88097 34102 ft 422 kts 313°
2026-05-05 10:15 41.87864 21.82216 34104 ft 422 kts 313°
2026-05-05 10:16 41.91745 21.76368 34095 ft 422 kts 312°
2026-05-05 10:16 41.95640 21.70488 34102 ft 423 kts 312°
2026-05-05 10:17 41.99567 21.64546 34107 ft 424 kts 312°
2026-05-05 10:17 42.03465 21.58636 34109 ft 424 kts 312°
2026-05-05 10:18 42.07370 21.52703 34103 ft 424 kts 312°
2026-05-05 10:18 42.11281 21.46749 34103 ft 423 kts 312°
2026-05-05 10:19 42.15169 21.40820 34099 ft 424 kts 312°
2026-05-05 10:19 42.19045 21.34797 34101 ft 424 kts 311°
2026-05-05 10:20 42.22877 21.28700 34107 ft 426 kts 311°
2026-05-05 10:20 42.26701 21.22606 34107 ft 426 kts 311°
2026-05-05 10:21 42.30534 21.16501 34114 ft 426 kts 311°
2026-05-05 10:21 42.34358 21.10405 34115 ft 426 kts 310°
2026-05-05 10:22 42.38187 21.04290 34120 ft 426 kts 310°
2026-05-05 10:22 42.41377 20.99185 34137 ft 427 kts 310°
2026-05-05 10:23 42.45230 20.93009 34120 ft 428 kts 310°
2026-05-05 10:23 42.49044 20.86882 34138 ft 428 kts 310°
2026-05-05 10:24 42.52881 20.80704 34127 ft 429 kts 310°
2026-05-05 10:24 42.56727 20.74499 34112 ft 429 kts 310°
2026-05-05 10:25 42.60569 20.68288 34116 ft 430 kts 310°
2026-05-05 10:25 42.64405 20.62073 34090 ft 430 kts 310°
2026-05-05 10:26 42.68253 20.55826 34097 ft 430 kts 310°
2026-05-05 10:26 42.72092 20.49580 34099 ft 430 kts 310°
2026-05-05 10:27 42.75928 20.43325 34103 ft 430 kts 309°
2026-05-05 10:27 42.79753 20.37076 34090 ft 430 kts 309°
2026-05-05 10:28 42.83601 20.30885 34089 ft 431 kts 313°
2026-05-05 10:28 42.88124 20.25457 34091 ft 434 kts 319°
2026-05-05 10:29 42.92783 20.20203 34096 ft 434 kts 319°
2026-05-05 10:29 42.97418 20.14928 34075 ft 434 kts 319°
2026-05-05 10:30 43.02035 20.09611 34078 ft 434 kts 318°
2026-05-05 10:30 43.06626 20.04290 34073 ft 435 kts 318°
2026-05-05 10:31 43.11228 19.98941 34068 ft 435 kts 318°
2026-05-05 10:31 43.15856 19.93552 34079 ft 435 kts 318°
2026-05-05 10:32 43.20448 19.88194 34073 ft 435 kts 318°
2026-05-05 10:32 43.25041 19.82824 34076 ft 435 kts 318°
2026-05-05 10:33 43.29639 19.77437 34074 ft 436 kts 318°
2026-05-05 10:33 43.34256 19.72018 34069 ft 437 kts 318°
2026-05-05 10:34 43.38873 19.66586 34064 ft 437 kts 318°
2026-05-05 10:34 43.43466 19.61173 34056 ft 437 kts 318°
2026-05-05 10:35 43.48086 19.55716 34042 ft 437 kts 317°
2026-05-05 10:35 43.52696 19.50259 34057 ft 439 kts 318°
2026-05-05 10:36 43.57322 19.44771 34057 ft 440 kts 318°
2026-05-05 10:36 43.61955 19.39264 34058 ft 440 kts 318°
2026-05-05 10:37 43.66599 19.33732 34042 ft 440 kts 317°
2026-05-05 10:37 43.71233 19.28200 34043 ft 440 kts 317°
2026-05-05 10:38 43.75858 19.22668 34050 ft 441 kts 317°
2026-05-05 10:38 43.80497 19.17121 34058 ft 442 kts 317°
2026-05-05 10:39 43.85136 19.11541 34059 ft 442 kts 317°
2026-05-05 10:39 43.89776 19.05949 34045 ft 443 kts 317°
2026-05-05 10:40 43.94442 19.00317 34057 ft 443 kts 317°
2026-05-05 10:40 43.99085 18.94703 34050 ft 443 kts 317°
2026-05-05 10:41 44.03706 18.89103 34050 ft 443 kts 317°
2026-05-05 10:41 44.08369 18.83441 34051 ft 443 kts 317°
2026-05-05 10:42 44.15336 18.74957 34045 ft 444 kts 317°
2026-05-05 10:43 44.19951 18.69323 34035 ft 444 kts 317°
2026-05-05 10:43 44.24586 18.63651 34042 ft 444 kts 317°
2026-05-05 10:44 44.29252 18.57929 34026 ft 445 kts 317°
2026-05-05 10:44 44.33885 18.52235 34030 ft 445 kts 317°
2026-05-05 10:45 44.38534 18.46509 34026 ft 446 kts 317°
2026-05-05 10:45 44.43175 18.40780 34023 ft 446 kts 317°
2026-05-05 10:46 44.47834 18.35016 34024 ft 447 kts 316°
2026-05-05 10:46 44.52478 18.29257 34026 ft 448 kts 316°
2026-05-05 10:47 44.57136 18.23469 34015 ft 448 kts 316°
2026-05-05 10:47 44.61825 18.17628 34011 ft 449 kts 316°
2026-05-05 10:48 44.66463 18.11840 34012 ft 449 kts 316°
2026-05-05 10:48 44.71148 18.05979 34001 ft 449 kts 316°
2026-05-05 10:49 44.75801 18.00144 34009 ft 450 kts 316°
2026-05-05 10:49 44.80456 17.94294 34007 ft 450 kts 316°
2026-05-05 10:50 44.85122 17.88417 34007 ft 450 kts 316°
2026-05-05 10:50 44.89786 17.82529 34007 ft 450 kts 316°
2026-05-05 10:51 44.94443 17.76636 33999 ft 450 kts 316°
2026-05-05 10:51 44.99101 17.70729 34015 ft 450 kts 316°
2026-05-05 10:52 45.03774 17.64790 34004 ft 451 kts 316°
2026-05-05 10:52 45.08415 17.58878 33998 ft 451 kts 316°
2026-05-05 10:53 45.13075 17.52927 34003 ft 451 kts 316°
2026-05-05 10:53 45.17732 17.46967 33996 ft 451 kts 316°
2026-05-05 10:54 45.22379 17.41006 33999 ft 452 kts 316°
2026-05-05 10:54 45.27050 17.35001 34000 ft 452 kts 316°
2026-05-05 10:55 45.31693 17.29016 33994 ft 452 kts 316°
2026-05-05 10:55 45.36362 17.22986 33998 ft 453 kts 315°
2026-05-05 10:56 45.41016 17.16960 33992 ft 453 kts 315°
2026-05-05 10:56 45.45677 17.10911 33990 ft 453 kts 315°
2026-05-05 10:57 45.50326 17.04865 33997 ft 453 kts 315°
2026-05-05 10:57 45.54972 16.98807 34000 ft 453 kts 315°
2026-05-05 10:58 45.59633 16.92715 33992 ft 453 kts 315°
2026-05-05 10:58 45.64251 16.86666 33989 ft 454 kts 315°
2026-05-05 10:58 45.66598 16.83586 34094 ft 455 kts 315°
2026-05-05 10:59 45.68908 16.80550 34308 ft 454 kts 315°
2026-05-05 10:59 45.71239 16.77485 34572 ft 452 kts 315°
2026-05-05 10:59 45.73524 16.74476 34820 ft 450 kts 315°
2026-05-05 10:59 45.75849 16.71410 34964 ft 451 kts 315°
2026-05-05 11:00 45.78140 16.68386 35096 ft 452 kts 315°
2026-05-05 11:00 45.80459 16.65322 35271 ft 452 kts 315°
2026-05-05 11:00 45.82776 16.62256 35502 ft 451 kts 315°
2026-05-05 11:00 45.85061 16.59229 35722 ft 449 kts 314°
2026-05-05 11:01 45.87365 16.56174 35912 ft 449 kts 314°
2026-05-05 11:01 45.91931 16.50105 35984 ft 451 kts 314°
2026-05-05 11:02 45.96539 16.43969 35988 ft 449 kts 314°
2026-05-05 11:02 46.01117 16.37857 35995 ft 449 kts 314°
2026-05-05 11:03 46.05697 16.31728 35989 ft 449 kts 314°
2026-05-05 11:03 46.10246 16.25627 35984 ft 449 kts 314°
2026-05-05 11:04 46.14826 16.19469 35985 ft 449 kts 314°
2026-05-05 11:04 46.19400 16.13304 35979 ft 450 kts 314°
2026-05-05 11:05 46.23946 16.07161 35990 ft 450 kts 314°
2026-05-05 11:05 46.28506 16.00987 35978 ft 450 kts 314°
2026-05-05 11:06 46.33051 15.94765 35972 ft 450 kts 313°
2026-05-05 11:06 46.37496 15.88421 35968 ft 449 kts 312°
2026-05-05 11:07 46.41936 15.82033 35965 ft 449 kts 312°
2026-05-05 11:07 46.46377 15.75657 35969 ft 449 kts 313°
2026-05-05 11:08 46.50834 15.69259 35977 ft 450 kts 312°
2026-05-05 11:08 46.55276 15.62869 35964 ft 450 kts 312°
2026-05-05 11:09 46.59704 15.56483 35955 ft 450 kts 313°
2026-05-05 11:09 46.64134 15.50078 35954 ft 451 kts 312°
2026-05-05 11:10 46.68579 15.43636 35956 ft 451 kts 312°
2026-05-05 11:10 46.73042 15.37151 35909 ft 452 kts 311°
2026-05-05 11:11 46.77465 15.30710 35908 ft 451 kts 312°
2026-05-05 11:11 46.81846 15.24166 35899 ft 451 kts 311°
2026-05-05 11:12 46.86195 15.17548 35912 ft 450 kts 310°
2026-05-05 11:12 46.90521 15.10957 35905 ft 450 kts 310°
2026-05-05 11:13 46.94854 15.04357 35901 ft 450 kts 311°
2026-05-05 11:13 46.99176 14.97767 35908 ft 449 kts 310°
2026-05-05 11:14 47.03501 14.91157 35908 ft 449 kts 310°
2026-05-05 11:14 47.07812 14.84550 35914 ft 449 kts 310°
2026-05-05 11:15 47.12069 14.78014 35909 ft 439 kts 310°
2026-05-05 11:15 47.16274 14.71540 35915 ft 436 kts 310°
2026-05-05 11:16 47.20451 14.65090 35908 ft 434 kts 310°
2026-05-05 11:16 47.24583 14.58693 35921 ft 435 kts 310°
2026-05-05 11:17 47.28778 14.52179 35915 ft 443 kts 310°
2026-05-05 11:17 47.33032 14.45560 35901 ft 446 kts 310°
2026-05-05 11:18 47.36617 14.39974 35891 ft 447 kts 309°
2026-05-05 11:18 47.40818 14.33416 35871 ft 437 kts 309°
2026-05-05 11:19 47.45683 14.25796 35840 ft 438 kts 310°
2026-05-05 11:19 47.49182 14.20297 35837 ft 439 kts 310°
2026-05-05 11:20 47.53342 14.13747 35830 ft 440 kts 310°
2026-05-05 11:20 47.57534 14.07131 35844 ft 441 kts 310°
2026-05-05 11:21 47.61743 14.00472 35844 ft 443 kts 310°
2026-05-05 11:21 47.65953 13.93795 35821 ft 444 kts 310°
2026-05-05 11:22 47.70157 13.87110 35813 ft 444 kts 310°
2026-05-05 11:22 47.74369 13.80396 35801 ft 444 kts 309°
2026-05-05 11:23 47.78579 13.73669 35811 ft 443 kts 309°
2026-05-05 11:23 47.82758 13.66973 35793 ft 442 kts 309°
2026-05-05 11:24 47.86938 13.60259 35803 ft 441 kts 309°
2026-05-05 11:24 47.91095 13.53564 35801 ft 440 kts 309°
2026-05-05 11:25 47.95240 13.46871 35803 ft 439 kts 309°
2026-05-05 11:25 47.99377 13.40174 35805 ft 439 kts 309°
2026-05-05 11:26 48.03483 13.33510 35803 ft 438 kts 309°
2026-05-05 11:26 48.07628 13.26766 35803 ft 439 kts 309°
2026-05-05 11:27 48.11755 13.20034 35807 ft 440 kts 309°
2026-05-05 11:27 48.15887 13.13275 35806 ft 441 kts 309°
2026-05-05 11:28 48.20027 13.06489 35804 ft 442 kts 309°
2026-05-05 11:28 48.24302 12.99828 35794 ft 446 kts 316°
2026-05-05 11:29 48.29154 12.94024 35809 ft 449 kts 319°
2026-05-05 11:29 48.34098 12.88281 35808 ft 450 kts 319°
2026-05-05 11:30 48.39028 12.82452 35803 ft 451 kts 318°
2026-05-05 11:30 48.43926 12.76580 35803 ft 451 kts 318°
2026-05-05 11:31 48.48835 12.70664 35802 ft 451 kts 318°
2026-05-05 11:31 48.53714 12.64769 35799 ft 451 kts 318°
2026-05-05 11:32 48.58593 12.58863 35799 ft 450 kts 317°
2026-05-05 11:32 48.63466 12.52948 35808 ft 449 kts 317°
2026-05-05 11:33 48.68360 12.46995 35792 ft 449 kts 317°
2026-05-05 11:33 48.73217 12.41070 35794 ft 448 kts 317°
2026-05-05 11:34 48.78031 12.35181 35795 ft 447 kts 317°
2026-05-05 11:34 48.82884 12.29232 35799 ft 447 kts 317°
2026-05-05 11:35 48.87549 12.23088 35794 ft 442 kts 308°
2026-05-05 11:35 48.90897 12.15409 35802 ft 434 kts 292°
2026-05-05 11:36 48.93486 12.07117 35799 ft 434 kts 291°
2026-05-05 11:36 48.96066 11.98782 35805 ft 435 kts 292°
2026-05-05 11:37 48.98670 11.90467 35812 ft 436 kts 291°
2026-05-05 11:37 49.01286 11.82148 35811 ft 437 kts 292°
2026-05-05 11:38 49.03916 11.73772 35812 ft 438 kts 291°
2026-05-05 11:38 49.06534 11.65406 35814 ft 438 kts 291°
2026-05-05 11:39 49.09137 11.57055 35814 ft 439 kts 291°
2026-05-05 11:39 49.11756 11.48626 35811 ft 440 kts 291°
2026-05-05 11:40 49.14375 11.40164 35812 ft 440 kts 291°
2026-05-05 11:40 49.16972 11.31750 35824 ft 440 kts 291°
2026-05-05 11:41 49.19578 11.23274 35817 ft 440 kts 291°
2026-05-05 11:41 49.22170 11.14815 35811 ft 440 kts 291°
2026-05-05 11:42 49.24770 11.06303 35817 ft 440 kts 290°
2026-05-05 11:42 49.27349 10.97827 35840 ft 440 kts 290°
2026-05-05 11:43 49.29931 10.89314 35845 ft 439 kts 290°
2026-05-05 11:43 49.32496 10.80829 35841 ft 439 kts 290°
2026-05-05 11:44 49.35144 10.72407 35861 ft 441 kts 294°
2026-05-05 11:44 49.38225 10.64239 35846 ft 443 kts 296°
2026-05-05 11:45 49.41371 10.56164 35843 ft 443 kts 296°
2026-05-05 11:45 49.44482 10.48037 35825 ft 443 kts 295°
2026-05-05 11:46 49.47582 10.39813 35824 ft 443 kts 295°
2026-05-05 11:46 49.50655 10.31602 35831 ft 444 kts 295°
2026-05-05 11:47 49.53715 10.23397 35832 ft 444 kts 295°
2026-05-05 11:47 49.56800 10.15105 35828 ft 444 kts 295°
2026-05-05 11:48 49.61388 10.02727 35831 ft 445 kts 295°
2026-05-05 11:48 49.64455 9.94419 35834 ft 444 kts 295°
2026-05-05 11:49 49.67502 9.86137 35843 ft 444 kts 294°
2026-05-05 11:49 49.70549 9.77829 35841 ft 444 kts 294°
2026-05-05 11:50 49.73581 9.69537 35842 ft 444 kts 294°
2026-05-05 11:50 49.76615 9.61210 35844 ft 444 kts 294°
2026-05-05 11:51 49.79641 9.52882 35863 ft 444 kts 294°
2026-05-05 11:51 49.82661 9.44540 35855 ft 444 kts 294°
2026-05-05 11:52 49.85677 9.36183 35848 ft 444 kts 294°
2026-05-05 11:52 49.88669 9.27865 35843 ft 444 kts 294°
2026-05-05 11:53 49.91667 9.19506 35848 ft 444 kts 294°
2026-05-05 11:53 49.94669 9.11107 35866 ft 444 kts 294°
2026-05-05 11:54 49.97664 9.02698 35845 ft 444 kts 293°
2026-05-05 11:54 50.00632 8.94340 35834 ft 444 kts 293°
2026-05-05 11:55 50.03607 8.85938 35836 ft 443 kts 293°
2026-05-05 11:55 50.06428 8.77456 35826 ft 438 kts 287°
2026-05-05 11:56 50.08542 8.68613 35830 ft 436 kts 284°
2026-05-05 11:56 50.10564 8.59671 35842 ft 436 kts 284°
2026-05-05 11:57 50.12610 8.50774 35833 ft 436 kts 284°
2026-05-05 11:57 50.14683 8.41874 35847 ft 436 kts 285°
2026-05-05 11:58 50.16745 8.33034 35854 ft 436 kts 284°
2026-05-05 11:58 50.18813 8.24132 35862 ft 436 kts 284°
2026-05-05 11:59 50.20877 8.15207 35854 ft 436 kts 284°
2026-05-05 11:59 50.22922 8.06327 35851 ft 436 kts 284°
2026-05-05 12:00 50.24969 7.97394 35842 ft 436 kts 284°
2026-05-05 12:00 50.27003 7.88487 35849 ft 435 kts 284°
2026-05-05 12:01 50.29027 7.79584 35847 ft 436 kts 284°
2026-05-05 12:01 50.31043 7.70677 35847 ft 437 kts 284°
2026-05-05 12:02 50.33060 7.61728 35852 ft 437 kts 284°
2026-05-05 12:02 50.35084 7.52712 35842 ft 439 kts 284°
2026-05-05 12:03 50.37100 7.43693 35850 ft 439 kts 284°
2026-05-05 12:03 50.39115 7.34638 35859 ft 441 kts 284°
2026-05-05 12:04 50.41119 7.25593 35854 ft 442 kts 284°
2026-05-05 12:04 50.43143 7.16418 35858 ft 442 kts 284°
2026-05-05 12:05 50.45144 7.07312 35853 ft 442 kts 284°
2026-05-05 12:05 50.47124 6.98256 35851 ft 441 kts 284°
2026-05-05 12:06 50.49106 6.89160 35856 ft 440 kts 284°
2026-05-05 12:06 50.51066 6.80000 35851 ft 438 kts 282°
2026-05-05 12:07 50.52726 6.70836 35846 ft 436 kts 280°
2026-05-05 12:07 50.54292 6.61638 35850 ft 435 kts 280°
2026-05-05 12:08 50.55863 6.52485 35846 ft 435 kts 280°
2026-05-05 12:08 50.57454 6.43296 35843 ft 435 kts 280°
2026-05-05 12:09 50.59043 6.34113 35846 ft 435 kts 280°
2026-05-05 12:09 50.60615 6.24991 35846 ft 434 kts 280°
2026-05-05 12:10 50.62191 6.15793 35850 ft 434 kts 280°
2026-05-05 12:10 50.63758 6.06598 35865 ft 434 kts 280°
2026-05-05 12:11 50.65317 5.97394 35879 ft 436 kts 280°
2026-05-05 12:11 50.66875 5.88148 35879 ft 437 kts 280°
2026-05-05 12:12 50.68427 5.78898 35884 ft 438 kts 280°
2026-05-05 12:12 50.69976 5.69608 35885 ft 440 kts 280°
2026-05-05 12:13 50.71525 5.60269 35900 ft 441 kts 280°
2026-05-05 12:13 50.73073 5.50887 35884 ft 442 kts 280°
2026-05-05 12:14 50.74364 5.43023 35882 ft 443 kts 280°
2026-05-05 12:14 50.75906 5.33576 35899 ft 444 kts 280°
2026-05-05 12:15 50.77441 5.24124 35876 ft 444 kts 280°
2026-05-05 12:15 50.78958 5.14744 35907 ft 443 kts 280°
2026-05-05 12:16 50.80552 5.05379 35888 ft 444 kts 286°
2026-05-05 12:16 50.83395 4.96615 35902 ft 448 kts 296°
2026-05-05 12:17 50.86609 4.88185 35894 ft 448 kts 297°
2026-05-05 12:17 50.89786 4.79762 35903 ft 446 kts 296°
2026-05-05 12:18 50.92927 4.71300 35900 ft 446 kts 296°
2026-05-05 12:18 50.96064 4.62774 35916 ft 446 kts 296°
2026-05-05 12:19 50.99173 4.54295 35911 ft 447 kts 296°
2026-05-05 12:19 51.02299 4.45744 35915 ft 448 kts 296°
2026-05-05 12:20 51.05421 4.37178 35914 ft 450 kts 296°
2026-05-05 12:20 51.08560 4.28537 35915 ft 451 kts 296°
2026-05-05 12:21 51.11696 4.19876 35916 ft 451 kts 296°
2026-05-05 12:21 51.14824 4.11205 35913 ft 452 kts 296°
2026-05-05 12:22 51.17949 4.02514 35917 ft 453 kts 296°
2026-05-05 12:22 51.21071 3.93806 35905 ft 453 kts 296°
2026-05-05 12:23 51.24370 3.85237 35898 ft 457 kts 305°
2026-05-05 12:23 51.28632 3.77704 35928 ft 459 kts 309°
2026-05-05 12:24 51.32902 3.70128 35910 ft 457 kts 306°
2026-05-05 12:24 51.36076 3.61517 35918 ft 446 kts 287°
2026-05-05 12:25 51.37808 3.52082 35920 ft 442 kts 281°
2026-05-05 12:25 51.39405 3.42541 35930 ft 441 kts 282°
2026-05-05 12:26 51.41023 3.33130 35943 ft 439 kts 283°
2026-05-05 12:26 51.41835 3.28460 35914 ft 425 kts 283°
2026-05-05 12:26 51.42620 3.23945 35916 ft 412 kts 282°
2026-05-05 12:27 51.43371 3.19609 35897 ft 399 kts 282°
2026-05-05 12:27 51.44100 3.15384 35693 ft 392 kts 282°
2026-05-05 12:27 51.44826 3.11157 35325 ft 390 kts 282°
2026-05-05 12:27 51.45536 3.06942 34539 ft 399 kts 281°
2026-05-05 12:28 51.46261 3.02534 33416 ft 414 kts 281°
2026-05-05 12:28 51.46998 2.98020 32453 ft 425 kts 282°
2026-05-05 12:28 51.47751 2.93428 31853 ft 424 kts 282°
2026-05-05 12:28 51.48499 2.88868 31270 ft 424 kts 282°
2026-05-05 12:29 51.49245 2.84315 30713 ft 426 kts 282°
2026-05-05 12:29 51.49999 2.79704 30144 ft 427 kts 282°
2026-05-05 12:29 51.50755 2.75062 29508 ft 425 kts 282°
2026-05-05 12:29 51.51496 2.70495 28855 ft 424 kts 282°
2026-05-05 12:30 51.52233 2.65950 28231 ft 423 kts 283°
2026-05-05 12:30 51.52973 2.61376 27643 ft 422 kts 282°
2026-05-05 12:30 51.53709 2.56809 27111 ft 419 kts 281°
2026-05-05 12:30 51.54436 2.52275 26586 ft 417 kts 283°
2026-05-05 12:31 51.55221 2.47844 26081 ft 415 kts 286°
2026-05-05 12:31 51.56211 2.43452 25577 ft 413 kts 289°
2026-05-05 12:31 51.57226 2.39173 25106 ft 411 kts 288°
2026-05-05 12:31 51.58228 2.34884 24620 ft 409 kts 288°
2026-05-05 12:32 51.59207 2.30624 24144 ft 406 kts 288°
2026-05-05 12:32 51.60181 2.26346 23669 ft 405 kts 289°
2026-05-05 12:32 51.61141 2.22119 23156 ft 403 kts 288°
2026-05-05 12:32 51.62106 2.17857 22610 ft 400 kts 289°
2026-05-05 12:33 51.63202 2.13778 22059 ft 400 kts 300°
2026-05-05 12:33 51.64923 2.10318 21601 ft 398 kts 315°
2026-05-05 12:33 51.67143 2.07657 21128 ft 396 kts 331°
2026-05-05 12:33 51.69560 2.05643 20685 ft 392 kts 333°
2026-05-05 12:34 51.71997 2.03649 20240 ft 390 kts 333°
2026-05-05 12:34 51.74392 2.01577 19812 ft 387 kts 326°
2026-05-05 12:34 51.76299 1.98669 19557 ft 377 kts 304°
2026-05-05 12:34 51.77490 1.94942 19317 ft 368 kts 287°
2026-05-05 12:35 51.78227 1.91056 19099 ft 361 kts 285°
2026-05-05 12:35 51.78928 1.87138 18848 ft 358 kts 285°
2026-05-05 12:35 51.79604 1.83331 18607 ft 355 kts 285°
2026-05-05 12:35 51.80292 1.79482 18387 ft 354 kts 285°
2026-05-05 12:36 51.80978 1.75674 18142 ft 356 kts 285°
2026-05-05 12:36 51.81678 1.71814 17873 ft 357 kts 286°
2026-05-05 12:36 51.82378 1.67973 17602 ft 354 kts 285°
2026-05-05 12:36 51.83073 1.64163 17329 ft 351 kts 286°
2026-05-05 12:37 51.83758 1.60410 16981 ft 351 kts 286°
2026-05-05 12:37 51.84449 1.56620 16645 ft 349 kts 286°
2026-05-05 12:37 51.85127 1.52897 16314 ft 347 kts 286°
2026-05-05 12:37 51.85813 1.49122 15981 ft 345 kts 286°
2026-05-05 12:38 51.86481 1.45441 15653 ft 344 kts 286°
2026-05-05 12:38 51.87153 1.41726 15326 ft 343 kts 286°
2026-05-05 12:38 51.87826 1.38002 14991 ft 343 kts 286°
2026-05-05 12:38 51.88487 1.34335 14668 ft 340 kts 286°
2026-05-05 12:39 51.89147 1.30666 14325 ft 337 kts 287°
2026-05-05 12:39 51.89802 1.27018 14013 ft 333 kts 287°
2026-05-05 12:39 51.90445 1.23429 13687 ft 330 kts 286°
2026-05-05 12:39 51.91078 1.19893 13336 ft 328 kts 286°
2026-05-05 12:40 51.91707 1.16361 12991 ft 325 kts 287°
2026-05-05 12:40 51.92333 1.12850 12685 ft 322 kts 287°
2026-05-05 12:40 51.92948 1.09395 12375 ft 319 kts 287°
2026-05-05 12:40 51.93558 1.05960 12066 ft 318 kts 286°
2026-05-05 12:41 51.94172 1.02495 11769 ft 319 kts 287°
2026-05-05 12:41 51.94779 0.99060 11460 ft 318 kts 286°
2026-05-05 12:41 51.95387 0.95614 11147 ft 314 kts 287°
2026-05-05 12:41 51.95978 0.92260 10843 ft 311 kts 287°
2026-05-05 12:42 51.96571 0.88886 10548 ft 307 kts 286°
2026-05-05 12:42 51.97150 0.85590 10255 ft 304 kts 286°
2026-05-05 12:42 51.97725 0.82304 9966 ft 301 kts 286°
2026-05-05 12:42 51.98290 0.79070 9662 ft 298 kts 286°
2026-05-05 12:43 51.98855 0.75833 9347 ft 296 kts 286°
2026-05-05 12:43 51.99406 0.72660 9060 ft 292 kts 285°
2026-05-05 12:43 51.99679 0.69409 8817 ft 288 kts 273°
2026-05-05 12:43 51.99708 0.66178 8653 ft 282 kts 271°
2026-05-05 12:44 51.99704 0.63045 8495 ft 278 kts 271°
2026-05-05 12:44 51.99709 0.59884 8342 ft 278 kts 272°
2026-05-05 12:44 51.99727 0.56754 8192 ft 280 kts 272°
2026-05-05 12:44 51.99756 0.53612 8039 ft 280 kts 272°
2026-05-05 12:45 51.99793 0.50444 7893 ft 281 kts 272°
2026-05-05 12:45 51.99834 0.47253 7733 ft 281 kts 272°
2026-05-05 12:45 51.99877 0.44075 7616 ft 280 kts 272°
2026-05-05 12:45 51.99921 0.40925 7485 ft 281 kts 272°
2026-05-05 12:46 51.99964 0.37780 7347 ft 281 kts 272°
2026-05-05 12:46 52.00008 0.34584 7212 ft 281 kts 272°
2026-05-05 12:46 52.00050 0.31441 7080 ft 281 kts 272°
2026-05-05 12:46 51.99952 0.28257 6914 ft 283 kts 256°
2026-05-05 12:47 51.98987 0.25551 6785 ft 283 kts 225°
2026-05-05 12:47 51.97555 0.23365 6675 ft 279 kts 223°
2026-05-05 12:47 51.96155 0.21291 6523 ft 273 kts 223°
2026-05-05 12:47 51.94755 0.19208 6369 ft 267 kts 223°
2026-05-05 12:48 51.93419 0.17207 6235 ft 265 kts 223°
2026-05-05 12:48 51.92075 0.15186 6080 ft 263 kts 223°
2026-05-05 12:48 51.90755 0.13196 5939 ft 259 kts 223°
2026-05-05 12:48 51.89458 0.11238 5788 ft 253 kts 223°
2026-05-05 12:49 51.88182 0.09313 5634 ft 247 kts 223°
2026-05-05 12:49 51.86938 0.07439 5485 ft 243 kts 222°
2026-05-05 12:49 51.85690 0.05556 5153 ft 247 kts 222°
2026-05-05 12:49 51.84449 0.03663 4975 ft 244 kts 222°
2026-05-05 12:50 51.83228 0.01801 4747 ft 242 kts 222°
2026-05-05 12:50 51.81985 -0.00093 4505 ft 242 kts 222°
2026-05-05 12:50 51.80786 -0.01889 4469 ft 233 kts 218°
2026-05-05 12:50 51.79337 -0.02857 4333 ft 223 kts 179°
2026-05-05 12:51 51.77908 -0.02367 4302 ft 206 kts 153°
2026-05-05 12:51 51.76763 -0.01074 4089 ft 196 kts 128°
2026-05-05 12:51 51.76113 0.00798 3806 ft 191 kts 103°
2026-05-05 12:51 51.76008 0.02880 3558 ft 187 kts 80°
2026-05-05 12:52 51.76405 0.04846 3313 ft 184 kts 60°
2026-05-05 12:52 51.77176 0.06370 3212 ft 173 kts 43°
2026-05-05 12:52 51.78050 0.07723 2991 ft 169 kts 43°
2026-05-05 12:52 51.78901 0.09021 2763 ft 170 kts 43°
2026-05-05 12:53 51.79774 0.10338 2523 ft 175 kts 43°
2026-05-05 12:53 51.80668 0.11686 2275 ft 175 kts 43°
2026-05-05 12:53 51.81544 0.13003 2033 ft 170 kts 43°
2026-05-05 12:53 51.82380 0.14267 1819 ft 159 kts 42°
2026-05-05 12:54 51.83880 0.16528 1396 ft 138 kts 43°
2026-05-05 12:54 51.84556 0.17547 1269 ft 130 kts 42°
2026-05-05 12:54 51.85239 0.18565 1027 ft 133 kts 40°
2026-05-05 12:55 51.85905 0.19576 856 ft 130 kts 44°
2026-05-05 12:55 51.86559 0.20559 687 ft 131 kts 41°
2026-05-05 12:55 51.87229 0.21578 510 ft 133 kts 40°
2026-05-05 12:55 51.87900 0.22577 358 ft 129 kts 44°
2026-05-05 12:56 51.88493 0.23473 348 ft 99 kts 41°
2026-05-05 12:56 51.88896 0.24072 350 ft 56 kts 42°
2026-05-05 12:56 51.89075 0.24442 343 ft 35 kts 65°
2026-05-05 12:56 51.89150 0.24737 347 ft 13 kts 67°
2026-05-05 12:57 51.89157 0.24879 352 ft 13 kts 107°
2026-05-05 12:57 51.89178 0.24980 353 ft 9 kts 44°
2026-05-05 12:57 51.89219 0.25058 353 ft 9 kts 56°
2026-05-05 12:57 51.89242 0.25140 351 ft 8 kts 84°
2026-05-05 12:58 51.89230 0.25187 354 ft 0 kts 129°
2026-05-05 12:58 51.89227 0.25192 351 ft 1 kts 130°
2026-05-05 12:58 51.89202 0.25237 350 ft 8 kts 132°
2026-05-05 12:59 51.89209 0.25325 350 ft 8 kts 54°
2026-05-05 12:59 51.89251 0.25389 355 ft 8 kts 43°
2026-05-05 12:59 51.89291 0.25449 350 ft 8 kts 42°
2026-05-05 13:00 51.89363 0.25558 348 ft 6 kts 42°
2026-05-05 13:00 51.89391 0.25599 348 ft 5 kts 39°
2026-05-05 13:01 51.89482 0.25738 348 ft 9 kts 42°
2026-05-05 13:01 51.89529 0.25823 351 ft 10 kts 76°
2026-05-05 13:01 51.89512 0.25888 355 ft 0 kts 130°
2026-05-05 13:02 51.89511 0.25891 355 ft 1 kts 130°
2026-05-05 13:02 51.89495 0.25920 355 ft 5 kts 131°
2026-05-05 13:02 51.89478 0.25950 351 ft 6 kts 133°
2026-05-05 13:03 51.89445 0.26005 348 ft 6 kts 146°
2026-05-05 13:03 51.89422 0.25989 349 ft 3 kts 220°
2026-05-05 13:03 51.89412 0.25974 351 ft 3 kts 223°
2026-05-05 13:03 51.89394 0.25947 351 ft 1 kts 223°
2026-05-05 13:04 51.89393 0.25945 351 ft 0 kts 223°